Weather History for Jackson, KY

Change the Weather History Date:

Thursday, December 6, 2012

  Actual Average Record
Temperature  
Mean Temperature 42 °F 41 °F  
Max Temperature 52 °F 49 °F 73 °F (1998)
Min Temperature 31 °F 33 °F 7 °F (1984)
Degree Days  
Heating Degree Days 23 24  
Month to date heating degree days 65 141  
Since 1 July heating degree days 1017 941  
Cooling Degree Days 0 0  
Month to date cooling degree days 0 0  
Year to date cooling degree days 1318 1154  
Moisture  
Dew Point 37 °F    
Average Humidity 77    
Maximum Humidity 92    
Minimum Humidity 61    
Precipitation  
Precipitation T in 0.14 in 2.15 in (2013)
Month to date precipitation 0.39 0.84  
Year to date precipitation 45.99 45.00  
Snow  
Snow 0.00 in 0.10 in - ()
Month to date snowfall 0.0 0.6  
Since 1 July snowfall 1.1 1.2  
Snow Depth 0.00 in    
Sea Level Pressure  
Sea Level Pressure 30.13 in    
Wind  
Wind Speed 2 mph (ENE)    
Max Wind Speed 8 mph    
Max Gust Speed 16 mph    
Visibility 10 miles    
Events      
T = Trace of Precipitation, MM = Missing Value Source: NWS Daily Summary

Daily Weather History Graph

Daily Weather History Graph

Search for Another Location

Airport:

Trip Planner

Search our weather history database for the weather conditions in past years. The results will help you decide how hot, cold, wet, or windy it might be!

Date:

Astronomy

Dec. 06, 2012 Rise Set
Actual Time 7:34 AM EST 5:14 PM EST
Civil Twilight 7:05 AM EST 5:43 PM EST
Nautical Twilight 6:32 AM EST 6:16 PM EST
Astronomical Twilight 6:00 AM EST 6:48 PM EST
Moon No Moon Rise 12:33 PM EST (12/6)
Length of Visible Light 10h 38m
Length of Day
9h 40m
Waning Gibbous, 49% of the Moon is Illuminated
Dec 6
Waning Gibbous
Dec 13
New
Dec 20
First Quarter
Dec 28
Full
Jan 4
Last Quarter

Hourly Weather History & Observations

Time (EST) Temp. Windchill Dew Point Humidity Pressure Visibility Wind Dir Wind Speed Gust Speed Precip Events Conditions
12:53 AM 37.0 °F 31.6 °F 28.9 °F 73% 30.23 in 10.0 mi NE 6.9 mph - N/A   Clear
1:53 AM 36.0 °F 31.1 °F 28.9 °F 76% 30.22 in 10.0 mi NE 5.8 mph - N/A   Clear
2:53 AM 34.0 °F 28.0 °F 28.9 °F 82% 30.21 in 10.0 mi NE 6.9 mph - N/A   Clear
3:53 AM 34.0 °F - 28.9 °F 82% 30.19 in 10.0 mi Calm Calm - N/A   Clear
4:53 AM 33.1 °F 27.7 °F 28.0 °F 82% 30.18 in 10.0 mi NE 5.8 mph - N/A   Clear
5:53 AM 30.9 °F 27.5 °F 28.0 °F 89% 30.19 in 10.0 mi NE 3.5 mph - N/A   Clear
6:53 AM 32.0 °F 27.5 °F 28.4 °F 87% 30.16 in 10.0 mi Variable 4.6 mph - N/A   Clear
7:53 AM 33.1 °F 30.0 °F 28.9 °F 85% 30.18 in 10.0 mi ENE 3.5 mph - N/A   Clear
8:53 AM 36.0 °F - 30.9 °F 82% 30.18 in 10.0 mi Calm Calm - N/A   Clear
9:53 AM 37.9 °F - 33.1 °F 83% 30.17 in 10.0 mi Calm Calm - N/A   Mostly Cloudy
10:53 AM 43.0 °F - 34.0 °F 71% 30.17 in 10.0 mi Calm Calm - N/A   Overcast
11:17 AM 44.6 °F - 35.6 °F 71% 30.14 in 10.0 mi Calm Calm - N/A   Mostly Cloudy
11:53 AM 46.9 °F - 35.1 °F 63% 30.14 in 10.0 mi Calm Calm - N/A   Scattered Clouds
12:05 PM 46.4 °F - 35.6 °F 66% 30.12 in 10.0 mi Calm Calm - N/A   Mostly Cloudy
12:35 PM 48.2 °F - 35.6 °F 62% 30.11 in - Calm Calm - N/A   Overcast
12:44 PM 48.2 °F - 35.6 °F 62% 30.11 in - Calm Calm - N/A   Overcast
12:53 PM 48.0 °F - 36.0 °F 63% 30.12 in - Calm Calm - N/A   Overcast
1:53 PM 48.9 °F - 37.0 °F 64% 30.11 in - Calm Calm - N/A   Overcast
2:53 PM 50.0 °F - 39.0 °F 66% 30.10 in 10.0 mi Calm Calm - N/A   Overcast
3:53 PM 51.1 °F - 42.1 °F 71% 30.10 in 10.0 mi Calm Calm - N/A   Overcast
4:53 PM 50.0 °F - 45.0 °F 83% 30.10 in 10.0 mi Calm Calm - 0.00 in   Overcast
5:46 PM 50.0 °F - 44.6 °F 82% 30.07 in 10.0 mi South 3.5 mph - 0.00 in   Overcast
5:53 PM 50.0 °F - 45.0 °F 83% 30.09 in 10.0 mi Calm Calm - 0.00 in   Overcast
6:53 PM 50.0 °F - 46.0 °F 86% 30.09 in 10.0 mi Variable 3.5 mph - N/A   Overcast
7:53 PM 50.0 °F - 46.0 °F 86% 30.09 in 10.0 mi Calm Calm - N/A   Overcast
8:53 PM 50.0 °F - 46.0 °F 86% 30.07 in 10.0 mi Variable 3.5 mph - 0.00 in   Overcast
9:53 PM 50.0 °F - 46.0 °F 86% 30.06 in 10.0 mi SSW 3.5 mph - 0.00 in   Overcast
10:53 PM 51.1 °F - 46.0 °F 83% 30.04 in 10.0 mi Variable 3.5 mph - N/A   Overcast
11:53 PM 52.0 °F - 45.0 °F 77% 30.04 in 10.0 mi Variable 3.5 mph - N/A   Overcast